sat.trackr.live / text

‹ back to catalog

STARLINK-32884

NORAD 62953 · 2025-029F

PAYLOAD ACTIVE UNKNOWN

§ Identity

Operator
Country
US
Launch date
2025-02-11
Launch site
AFWTR
Launch vehicle
Mass (kg)
RCS (m²)

Purposes: comms

External: N2YO · Heavens-Above · Gunter

§ Orbital elements

Epoch: 2026-09-21T21:25:24.397536Z

Period
93.85 min
Inclination
53.1602°
Eccentricity
0.0000853
Mean motion
15.34377327 rev/d
Perigee alt
462.2 km
Apogee alt
463.4 km
Semi-major
6,840.9 km
B*
1.3568e-4
RAAN
34.9811°
Arg perigee
108.1383°
Mean anomaly
251.9713°
Rev number
9,145

§ Raw data

STARLINK-328841 62953U 25029F   26264.89264349  .00004207  00000+0  13568-3 0  99962 62953  53.1602  34.9811 0000853 108.1383 251.9713 15.34377327 91459

JSON: /api/v1/satellites/62953 · /tle

For live sub-satellite position, see the globe view (requires WebGL).

§ Visibility from observer

Set your observer location to see the next 7 days of passes ≥ 10°. The values pass through the URL so the page stays shareable.

No JS? Fill the form by hand. The geolocation button needs JavaScript.